Home   Weather   Delémont   Past weeks
Flag for Switzerland

Past Weather in Delémont, Jura, Switzerland — Yesterday and Last 2 Weeks

Now
50 °F

Cool.


Feels Like: 47 °F
Forecast: 51 / 41 °F
Wind: 7 mph from Southwest

Location: Grenchen

Current Time: Dec 15, 2019 at 11:53:06 am

Latest Report: Dec 15, 2019 at 10:00 am


Visibility: N/A

Pressure: 29.82 "Hg

Humidity: 87%

Dew Point: 46 °F

Location of DelémontLocation

Past Weather in Delémont — Graph

°F

Delémont Temperature Yesterday

Maximum temperature yesterday: 50 °F (at 2:00 pm)
Minimum temperature yesterday: 36 °F (at 3:00 am)
Average temperature yesterday: 44 °F

High & Low Weather Summary for the Past Weeks

 TemperatureHumidityPressure
High51 °F (Dec 7, 2:00 pm)100% (Dec 1, 11:00 pm)30.46 "Hg (Dec 1, 11:00 pm)
Low26 °F (Dec 11, 3:00 am)50% (Dec 10, 2:00 pm)29.09 "Hg (Dec 13, 7:00 am)
Average38 °F88%30.03 "Hg
* Reported Nov 30 10:00 am — Dec 15 10:00 am, Delémont. Weather by CustomWeather, © 2019

Note: Actual official high and low records may vary slightly from our data, if they occured in-between our weather recording intervals... More about our weather records

Delémont Weather History for the Previous 24 Hours

Scroll right to see more
 ConditionsComfort  
Time TempWeatherWind HumidityBarometerVisibility
10:00 am
Sun, Dec 15
50 °FCool.7 mph87%29.82 "HgN/A
9:00 am50 °FCool.10 mph84%29.80 "HgN/A
8:00 am49 °FCool.15 mph83%29.78 "HgN/A
7:00 am49 °FCool.16 mph84%29.78 "HgN/A
6:00 am49 °FCool.15 mph83%29.76 "HgN/A
5:00 am50 °FCool.12 mph84%29.75 "HgN/A
4:00 am49 °FCool.10 mph88%29.76 "HgN/A
3:00 am49 °FCool.16 mph86%29.77 "HgN/A
2:00 am47 °FCool.13 mph87%29.76 "HgN/A
1:00 am47 °FCool.12 mph89%29.77 "HgN/A
12:00 am45 °FQuite cool.6 mph97%29.78 "HgN/A
11:00 pm
Sat, Dec 14
45 °FCool.1 mph97%29.79 "HgN/A
10:00 pm46 °FCool.2 mph93%29.82 "HgN/A
9:00 pm46 °FCool.7 mph92%29.83 "HgN/A
8:00 pm46 °FCool.15 mph92%29.82 "HgN/A
7:00 pm46 °FCool.14 mph91%29.81 "HgN/A
6:00 pm46 °FCool.15 mph84%29.80 "HgN/A
5:00 pm47 °FCool.21 mph76%29.78 "HgN/A
4:00 pm48 °FCool.16 mph66%29.75 "HgN/A
3:00 pm48 °FCool.14 mph59%29.74 "HgN/A
2:00 pm50 °FCool.17 mph52%29.72 "HgN/A
1:00 pm48 °FCool.21 mph61%29.73 "HgN/A
12:00 pm47 °FCool.22 mph66%29.69 "HgN/A
11:00 am46 °FCool.20 mph72%29.65 "HgN/A
Weather by CustomWeather, © 2019

See weather overview

Advertising